Weather reports worldwide

Advertisment
Vitoria, Spain (8080): temperature & dewpoint: 16.09.2018 23:00:00 - 22.09.2018 23:00:00 (CEST)Vitoria, Spain (8080): wind speed: 16.09.2018 23:00:00 - 22.09.2018 23:00:00 (CEST)Vitoria, Spain (8080): wind direction: 16.09.2018 23:00:00 - 22.09.2018 23:00:00 (CEST)Vitoria, Spain (8080): reduced air pressure: 16.09.2018 23:00:00 - 22.09.2018 23:00:00 (CEST)Vitoria, Spain (8080): visibility: 16.09.2018 23:00:00 - 22.09.2018 23:00:00 (CEST)Vitoria, Spain (8080): precipitation: 16.09.2018 23:00:00 - 22.09.2018 23:00:00 (CEST)
Date & Time tt [°C] td [°C] ff [km/h] ff [kn] dd ppp [hPa] vv [km] rr [mm]
22.09.2018 23:00:00 17,6 13,5 4 2 ENE 1025,7 - -
22.09.2018 22:00:00 19,1 14,4 4 2 E 1024,9 - -
22.09.2018 21:00:00 21,2 14,6 11 6 N 1023,7 - -
22.09.2018 20:00:00 22,8 15,1 15 8 NNE 1022,7 25 -
22.09.2018 19:00:00 25,7 15,7 24 13 NNE 1021,8 - -
22.09.2018 18:00:00 28,3 15,6 21 11 NNE 1021,0 - -
22.09.2018 17:00:00 29,8 15,1 22 12 NNE 1020,4 30 -
22.09.2018 16:00:00 29,9 15,3 18 10 NNE 1020,5 - -
22.09.2018 15:00:00 29,0 13,6 5 3 NNE 1021,0 - -
22.09.2018 14:00:00 27,5 14,9 4 2 S 1021,8 30 -
22.09.2018 13:00:00 25,1 14,9 5 3 SE 1022,6 - -
22.09.2018 12:00:00 22,4 15,9 5 3 ESE 1023,1 - -
22.09.2018 11:00:00 19,7 15,4 4 2 SSW 1023,8 20 -
22.09.2018 10:00:00 16,8 14,8 0 0 N 1024,3 - -
22.09.2018 09:00:00 14,3 14,0 0 0 N 1024,5 10 -
22.09.2018 08:00:00 12,8 12,0 4 2 ENE 1024,3 15 -
22.09.2018 07:00:00 14,4 13,3 0 0 N 1023,8 - -
22.09.2018 06:00:00 14,4 13,4 5 3 N 1024,0 - -
22.09.2018 05:00:00 14,2 13,2 2 1 NNE 1024,3 10 -
22.09.2018 04:00:00 14,1 12,8 5 3 N 1024,2 - -
22.09.2018 03:00:00 15,4 13,6 8 4 NE 1024,4 - -
22.09.2018 02:00:00 17,1 15,3 0 0 N 1023,9 15 -
22.09.2018 01:00:00 17,3 15,3 5 3 NNW 1024,3 - -
22.09.2018 00:00:00 17,1 15,4 8 4 NE 1024,5 - -
21.09.2018 23:00:00 17,5 15,3 9 5 NE 1024,3 15 -
21.09.2018 22:00:00 17,7 15,5 13 7 NNE 1024,2 - -
21.09.2018 21:00:00 17,8 15,1 11 6 NE 1023,2 - -
21.09.2018 20:00:00 18,5 14,4 22 12 NNE 1022,7 20 -
21.09.2018 19:00:00 20,0 15,2 26 14 NNE 1021,6 - -
21.09.2018 18:00:00 21,4 14,5 29 16 NNE 1021,1 - -
21.09.2018 17:00:00 22,9 14,6 28 15 NNE 1020,2 25 -
21.09.2018 16:00:00 25,4 13,9 21 11 NE 1019,3 - -
21.09.2018 15:00:00 24,8 13,3 18 10 NE 1019,3 20 -
21.09.2018 14:00:00 24,4 12,5 8 4 NNW 1019,8 20 -
21.09.2018 13:00:00 24,0 13,3 5 3 NE 1020,3 - -
21.09.2018 12:00:00 20,9 13,8 8 4 ENE 1021,1 - -
21.09.2018 11:00:00 18,8 15,5 0 0 N 1021,2 9 -
21.09.2018 10:00:00 16,3 15,8 2 1 W 1020,9 - -
21.09.2018 09:00:00 15,1 14,8 4 2 N 1020,6 0,5 -
21.09.2018 08:00:00 15,3 15,1 0 0 N 1019,6 0,5 -
21.09.2018 07:00:00 15,3 15,0 0 0 N 1018,9 - -
21.09.2018 06:00:00 15,5 14,7 0 0 N 1018,5 - -
21.09.2018 05:00:00 14,7 13,9 0 0 N 1018,8 6 -
21.09.2018 04:00:00 14,0 13,2 9 5 N 1018,9 - -
21.09.2018 03:00:00 14,5 13,5 8 4 NNE 1018,9 - -
21.09.2018 02:00:00 15,9 15,1 9 5 N 1018,4 9 -
21.09.2018 01:00:00 16,5 15,5 0 0 N 1018,7 - -
21.09.2018 00:00:00 17,2 15,7 0 0 N 1018,8 - -
20.09.2018 23:00:00 18,6 16,5 9 5 ESE 1018,3 8 -
20.09.2018 22:00:00 19,9 16,9 8 4 ESE 1017,5 - -
20.09.2018 21:00:00 21,6 17,4 15 8 NNE 1016,0 - -
20.09.2018 20:00:00 24,4 18,2 22 12 NNE 1014,9 20 -
20.09.2018 19:00:00 31,1 14,3 11 6 SSW 1013,2 - -
20.09.2018 18:00:00 32,0 14,2 15 8 SSW 1013,0 - -
20.09.2018 17:00:00 32,2 14,3 13 7 SW 1013,5 25 -
20.09.2018 16:00:00 31,3 15,0 13 7 S 1014,3 - -
20.09.2018 15:00:00 30,3 15,5 13 7 SW 1015,3 25 -
20.09.2018 14:00:00 28,5 16,5 9 5 SW 1016,6 20 -
20.09.2018 13:00:00 26,2 18,0 8 4 WSW 1017,9 - -
20.09.2018 12:00:00 23,8 17,7 8 4 SW 1019,0 - -
20.09.2018 11:00:00 21,7 16,9 11 6 SW 1019,6 15 -
20.09.2018 10:00:00 19,9 16,5 5 3 SSW 1020,1 - -
20.09.2018 09:00:00 18,6 16,6 8 4 SSW 1020,4 8 -
20.09.2018 08:00:00 18,3 16,5 8 4 SW 1020,4 8 -
20.09.2018 07:00:00 18,6 16,6 0 0 N 1020,4 - -
20.09.2018 06:00:00 18,6 16,4 0 0 N 1020,6 - -
20.09.2018 05:00:00 18,6 16,6 8 4 NE 1021,1 9 -
20.09.2018 04:00:00 18,8 16,6 8 4 NE 1021,3 - -
20.09.2018 03:00:00 19,0 16,9 8 4 N 1021,6 - -
20.09.2018 02:00:00 19,0 17,0 9 5 N 1021,9 9 -
20.09.2018 01:00:00 19,0 17,0 11 6 N 1022,0 - -
20.09.2018 00:00:00 18,2 16,5 5 3 NNW 1022,3 - -
19.09.2018 23:00:00 18,7 16,7 5 3 NNW 1022,2 9 -
19.09.2018 22:00:00 19,2 16,9 5 3 NNW 1021,7 - -
19.09.2018 21:00:00 19,8 17,0 8 4 NW 1021,1 - -
19.09.2018 20:00:00 21,3 17,5 11 6 NNW 1020,3 10 -
19.09.2018 19:00:00 23,5 18,2 22 12 NNE 1019,3 - -
19.09.2018 18:00:00 26,0 18,9 22 12 N 1018,1 - -
19.09.2018 17:00:00 26,8 19,0 28 15 NNE 1017,5 25 -
19.09.2018 16:00:00 30,0 15,1 11 6 N 1017,3 - -
19.09.2018 15:00:00 29,4 15,5 9 5 SSW 1017,8 25 -
19.09.2018 14:00:00 27,3 17,2 5 3 SSE 1018,8 20 -
19.09.2018 13:00:00 25,2 17,8 4 2 NE 1019,9 - -
19.09.2018 12:00:00 23,3 17,2 8 4 S 1020,7 - -
19.09.2018 11:00:00 21,3 16,9 4 2 WSW 1021,2 10 -
19.09.2018 10:00:00 19,5 17,1 0 0 N 1021,0 - -
19.09.2018 09:00:00 17,2 16,4 5 3 E 1020,9 8 -
19.09.2018 08:00:00 16,9 15,6 5 3 E 1020,1 8 -
19.09.2018 07:00:00 18,4 16,9 8 4 NNE 1019,4 - -
19.09.2018 06:00:00 18,5 16,8 0 0 N 1018,9 - -
19.09.2018 05:00:00 18,8 17,1 9 5 NE 1019,3 10 -
19.09.2018 04:00:00 19,0 17,3 0 0 N 1019,6 - -
19.09.2018 03:00:00 18,5 16,9 4 2 NE 1019,8 - -
19.09.2018 02:00:00 18,8 17,1 8 4 ENE 1019,6 10 -
19.09.2018 01:00:00 19,3 17,4 0 0 N 1019,7 - -
19.09.2018 00:00:00 19,4 17,4 11 6 N 1019,6 - -
18.09.2018 23:00:00 19,3 17,4 13 7 NE 1019,4 10 -
18.09.2018 22:00:00 19,7 17,5 13 7 NNE 1018,7 - -
18.09.2018 21:00:00 19,8 17,8 16 9 N 1018,1 - -
18.09.2018 20:00:00 21,0 18,2 15 8 N 1017,0 10 -
18.09.2018 19:00:00 24,2 18,4 18 10 N 1015,3 - -
18.09.2018 18:00:00 27,0 18,8 21 11 NNE 1013,6 - -
18.09.2018 17:00:00 29,4 16,2 8 4 S 1013,0 25 -
18.09.2018 16:00:00 28,8 16,2 5 3 W 1013,4 - -
18.09.2018 15:00:00 27,5 17,3 9 5 W 1014,0 25 -
18.09.2018 14:00:00 26,2 18,5 5 3 W 1014,9 20 -
18.09.2018 13:00:00 24,3 18,5 8 4 SW 1015,7 - -
18.09.2018 12:00:00 21,4 17,8 0 0 N 1016,8 - -
18.09.2018 11:00:00 18,1 16,6 0 0 N 1017,4 20 -
18.09.2018 10:00:00 17,0 16,0 4 2 ENE 1017,2 - -
18.09.2018 09:00:00 15,4 14,9 4 2 NE 1017,1 18 -
18.09.2018 08:00:00 14,1 13,8 0 0 N 1016,8 18 -
18.09.2018 07:00:00 13,6 13,3 2 1 NNW 1016,7 - -
18.09.2018 06:00:00 13,9 13,6 0 0 N 1016,4 - -
18.09.2018 05:00:00 13,9 12,9 0 0 N 1016,5 15 0,0
18.09.2018 04:00:00 14,7 13,6 5 3 S 1016,6 - -
18.09.2018 03:00:00 15,2 14,2 9 5 NNE 1016,5 - -
18.09.2018 02:00:00 16,7 15,3 4 2 N 1015,8 15 -
18.09.2018 01:00:00 17,5 16,1 0 0 N 1015,7 - -
18.09.2018 00:00:00 18,3 16,1 9 5 N 1015,9 - -
17.09.2018 23:00:00 18,6 16,4 8 4 SE 1015,4 15 -
17.09.2018 22:00:00 19,8 16,1 11 6 WSW 1016,1 - -
17.09.2018 21:00:00 22,8 12,5 13 7 W 1014,8 - -
17.09.2018 20:00:00 24,1 13,4 11 6 SE 1013,6 15 -
17.09.2018 19:00:00 27,0 12,2 24 13 SSW 1012,2 - -
17.09.2018 18:00:00 28,8 15,8 11 6 S 1011,8 - -
17.09.2018 17:00:00 30,6 16,3 11 6 SE 1012,1 - -
17.09.2018 16:00:00 30,6 16,3 13 7 SSE 1012,7 - -
17.09.2018 15:00:00 29,9 16,7 9 5 S 1013,6 - -
17.09.2018 14:00:00 28,5 16,8 11 6 S 1014,7 25 -
17.09.2018 13:00:00 27,0 16,1 21 11 S 1015,7 - -
17.09.2018 12:00:00 25,3 17,5 9 5 WSW 1016,5 - -
17.09.2018 11:00:00 22,6 16,6 4 2 N 1017,3 15 -
17.09.2018 10:00:00 19,9 16,3 0 0 N 1018,1 - -
17.09.2018 09:00:00 15,1 14,2 0 0 N 1019,3 10 -
17.09.2018 08:00:00 12,8 12,3 2 1 ESE 1019,6 9 -
17.09.2018 07:00:00 13,5 12,7 0 0 N 1019,3 - -
17.09.2018 06:00:00 15,0 13,9 5 3 SW 1019,0 - -
17.09.2018 05:00:00 17,3 15,9 4 2 W 1018,8 8 -
17.09.2018 04:00:00 17,9 16,4 0 0 N 1019,1 - -
17.09.2018 03:00:00 18,0 16,3 0 0 N 1019,6 - -
17.09.2018 02:00:00 18,0 16,3 5 3 NE 1020,1 9 -
17.09.2018 01:00:00 18,0 16,3 11 6 NNE 1020,4 - -
17.09.2018 00:00:00 18,3 16,5 13 7 NNE 1020,8 - -
16.09.2018 23:00:00 18,4 16,6 16 9 NNE 1021,0 9 -

tt = temperature
td = dewpoint
ff = wind speed
dd = wind direction
ppp = reduced air pressure
vv = visibility
rr = precipitation

Next stations